FW5223 Weather Reports


time (UTC)temp
F
wind
direction
speed
knots
gust
knots
rain 1hr
in
rain 24hr
in
rain mn
in
humidity
%
barometer
mb
20260507223104 75 282 5.2 12.2 0.00 0.00 0.00 28 1017.0
20260507221532 74 273 6.1 15.6 0.00 0.00 0.00 29 1017.2
20260507220038 73 273 6.1 13.9 0.00 0.00 0.00 31 1017.5
20260507214531 73 281 6.1 14.8 0.00 0.00 0.00 32 1017.7
20260507213035 72 297 5.2 15.6 0.00 0.00 0.00 35 1017.7
20260507211610 71 300 7.0 13.9 0.00 0.00 0.00 36 1017.8
20260507210036 71 298 6.1 17.4 0.00 0.00 0.00 37 1018.0
20260507204535 70 289 6.1 14.8 0.00 0.00 0.00 37 1018.2
20260507203032 70 291 6.1 15.6 0.00 0.00 0.00 37 1018.3
20260507201537 70 302 6.1 12.2 0.00 0.00 0.00 39 1018.4
20260507200030 69 299 6.1 14.8 0.00 0.00 0.00 40 1018.6
20260507194531 69 299 7.0 13.9 0.00 0.00 0.00 41 1018.7
20260507193031 68 295 6.1 14.8 0.00 0.00 0.00 43 1018.8
20260507190033 67 302 7.8 20.9 0.00 0.00 0.00 47 1019.0
20260507183034 67 306 7.0 19.1 0.00 0.00 0.00 50 1019.6
20260507181532 66 294 6.1 13.9 0.00 0.00 0.00 50 1019.7
20260507180030 65 299 5.2 13.0 0.00 0.00 0.00 52 1019.9
20260507174536 65 294 5.2 13.0 0.00 0.00 0.00 53 1020.1
20260507173129 64 290 5.2 13.9 0.00 0.00 0.00 54 1020.3
20260507171534 65 306 6.1 12.2 0.00 0.00 0.00 57 1020.5
20260507170109 64 306 4.3 10.4 0.00 0.00 0.00 58 1020.6
20260507164537 64 322 5.2 13.0 0.00 0.00 0.00 59 1020.6
20260507163037 64 302 4.3 10.4 0.00 0.00 0.00 60 1020.6
20260507161533 62 275 3.5 9.6 0.00 0.00 0.00 60 1020.7
20260507160032 61 278 4.3 11.3 0.00 0.00 0.00 62 1020.9
20260507154530 61 268 5.2 10.4 0.00 0.00 0.00 63 1020.9
20260507153033 61 237 3.5 8.7 0.00 0.00 0.00 65 1021.1
20260507151531 60 278 1.7 6.1 0.00 0.00 0.00 67 1021.1
20260507150106 58 253 2.6 7.8 0.00 0.00 0.00 69 1021.1
20260507144535 57 261 3.5 7.8 0.00 0.00 0.00 72 1021.0
20260507143151 56 277 4.3 10.4 0.00 0.00 0.00 73 1021.0
20260507141530 56 268 2.6 9.6 0.00 0.00 0.00 76 1020.9
20260507134536 52 229 1.7 7.8 0.00 0.00 0.00 77 1020.6
20260507133029 53 297 2.6 10.4 0.00 0.00 0.00 76 1020.4
20260507131535 53 292 4.3 11.3 0.00 0.00 0.00 75 1020.2
20260507130035 54 284 5.2 13.9 0.00 0.00 0.00 75 1020.1
20260507124530 54 279 6.1 13.0 0.00 0.00 0.00 75 1020.1
20260507121530 54 282 6.1 13.9 0.00 0.00 0.00 75 1020.0
20260507120031 54 284 6.1 15.6 0.00 0.00 0.00 75 1019.9
20260507114536 54 284 6.1 13.0 0.00 0.00 0.00 76 1019.9
20260507113107 54 288 4.3 10.4 0.00 0.00 0.00 76 1019.8
20260507111530 54 294 5.2 11.3 0.00 0.00 0.00 76 1019.6
20260507110030 55 302 4.3 13.9 0.00 0.00 0.00 75 1019.5
20260507104607 55 293 4.3 11.3 0.00 0.00 0.00 75 1019.3
20260507103032 56 282 5.2 15.6 0.00 0.00 0.00 74 1019.3
20260507101642 56 277 5.2 16.5 0.00 0.00 0.00 73 1019.4
20260507094534 57 266 4.3 12.2 0.00 0.00 0.00 72 1019.5
20260507093031 57 267 4.3 13.0 0.00 0.00 0.00 72 1019.6
20260507091530 57 270 5.2 13.0 0.00 0.00 0.00 73 1019.7
20260507084535 57 318 4.3 11.3 0.00 0.00 0.00 74 1019.7
20260507083105 57 320 4.3 8.7 0.00 0.00 0.00 74 1019.7
20260507081537 58 324 3.5 10.4 0.00 0.00 0.00 73 1019.7
20260507074606 59 309 3.5 9.6 0.00 0.00 0.00 72 1019.8
20260507071532 59 276 5.2 12.2 0.00 0.00 0.00 72 1019.7
20260507070035 59 275 4.3 12.2 0.00 0.00 0.00 71 1019.7
20260507064531 60 283 3.5 11.3 0.00 0.00 0.00 71 1019.7
20260507061534 60 282 4.3 12.2 0.00 0.00 0.00 70 1019.9
20260507060035 61 276 4.3 13.0 0.00 0.00 0.00 70 1020.0
20260507054529 61 275 4.3 12.2 0.00 0.00 0.00 69 1020.0
20260507053030 61 271 5.2 13.0 0.00 0.00 0.00 68 1020.1
20260507051530 61 276 5.2 13.0 0.00 0.00 0.00 67 1020.0
20260507050045 61 268 4.3 13.0 0.00 0.00 0.00 66 1020.0
20260507044533 61 250 2.6 9.6 0.00 0.00 0.00 65 1020.0
20260507043035 61 277 2.6 7.8 0.00 0.00 0.00 63 1019.9
20260507041531 62 293 2.6 9.6 0.00 0.00 0.00 60 1019.8
20260507040043 64 291 0.9 3.5 0.00 0.00 0.00 56 1019.6
20260507034533 66 294 2.6 8.7 0.00 0.00 0.00 52 1019.5
20260507033035 67 259 2.6 10.4 0.00 0.00 0.00 51 1019.4
20260507031535 67 260 4.3 9.6 0.00 0.00 0.00 51 1019.2
20260507030030 66 267 3.5 10.4 0.00 0.00 0.00 52 1019.2
20260507024531 64 294 2.6 13.9 0.00 0.00 0.00 58 1019.3
20260507023040 64 348 1.7 5.2 0.00 0.00 0.00 58 1019.3
20260507021534 65 331 1.7 8.7 0.00 0.00 0.00 56 1019.3
20260507020030 66 325 3.5 8.7 0.00 0.00 0.00 55 1019.1
20260507014607 66 317 4.3 11.3 0.00 0.00 0.00 54 1019.0
20260507011529 68 306 4.3 12.2 0.00 0.00 0.00 50 1018.9
20260507010144 69 290 6.1 15.6 0.00 0.00 0.00 48 1018.8
20260507004535 70 278 6.1 14.8 0.00 0.00 0.00 46 1018.7
20260507003035 70 274 7.0 19.1 0.00 0.00 0.00 46 1018.6
20260507001531 70 271 7.0 18.2 0.00 0.00 0.00 45 1018.4
20260507000032 71 267 7.8 18.2 0.00 0.00 0.00 43 1018.3
20260506234532 72 264 7.8 18.2 0.00 0.00 0.00 41 1018.2
20260506231530 73 266 7.0 20.0 0.00 0.00 0.00 43 1017.9
20260506230034 73 274 6.1 16.5 0.00 0.00 0.00 44 1018.1